#timestamp,LO_Frequency,Hit,StdDev 
1626274815.2,286046998.4,N
1626274835.1,286046998.3,N
1626274836.0,286046998.3,N
1626274855.8,286046998.5,N
1626274875.7,286046998.3,N
1626274895.5,286047001.0,N
1626274915.3,286047000.7,N
1626274935.2,286046998.5,N
1626274955.0,286046998.1,N
1626274955.9,286046998.1,N
1626274975.8,286046998.1,N
1626274995.6,286047001.0,N
1626275015.4,286046998.5,N
1626275035.3,286047001.0,N
1626275055.1,286046998.6,N
1626275075.8,286046998.1,N
1626275095.7,286047001.1,N
1626275115.5,286047000.5,N
1626275135.4,286046998.1,N
1626275155.2,286046998.1,N
1626275175.0,286047000.4,N
1626275175.9,286047000.4,N
1626275195.8,286047000.8,N
1626275215.6,286047000.7,N
1626275235.5,286047000.3,N
1626275255.3,286047000.8,N
1626275275.1,286047000.4,N
1626275295.9,286047000.8,N
1626275315.7,286047000.8,N
1626275335.5,286047000.8,N
1626275355.4,286047001.2,N
1626275375.2,286046998.5,N
1626275395.1,286046998.5,N
1626275396.0,286046998.5,N
1626275415.8,286046998.3,N
1626275435.6,286046998.6,N
1626275455.5,286046998.6,N
1626275475.3,286046998.6,N
1626275495.2,286046998.5,N
1626275515.9,286046998.6,N
1626275535.7,286046998.2,N
1626275555.6,286046998.2,N
1626275575.4,286047001.0,N
1626275595.2,286046998.1,N
1626275615.1,286047001.1,N
1626275616.0,286047001.1,N
1626275635.8,286046998.1,N
1626275655.7,286046998.5,N
1626275675.5,286046998.5,N
1626275695.3,286046998.1,N
1626275715.2,286046998.1,N
1626275735.0,286047000.6,N
1626275735.9,286047000.6,N
1626275755.8,286047001.1,N
1626275775.6,286047001.2,N
1626275795.4,286046998.2,N
1626275815.3,286047001.2,N
1626275835.1,286046998.5,N
1626275855.8,286047001.1,N
1626275875.7,286047001.0,N
1626275895.5,286047000.8,N
1626275915.4,286047001.1,N
1626275935.2,286047001.1,N
1626275955.0,286047000.8,N
1626275955.9,286047000.8,N
1626275975.8,286047001.2,N
1626275995.6,286047000.9,N
1626276015.5,286047000.7,N
1626276035.3,286047000.7,N
1626276055.1,286047000.6,N
1626276075.9,286046999.7,N
1626276095.7,286047000.4,N
1626276115.5,286047000.4,N
1626276135.4,286047000.6,N
1626276155.2,286047000.7,N
1626276175.1,286047000.9,N
1626276176.0,286047000.9,N
1626276195.8,286047000.6,N
1626276215.6,286047000.0,N
1626276235.5,286047000.5,N
1626276255.3,286047000.5,N
1626276275.2,286047000.9,N
1626276295.9,286047000.4,N
1626276315.7,286047000.5,N
1626276335.6,286047000.6,N
1626276355.4,286047000.3,N
1626276375.2,286047000.6,N
1626276395.1,286047000.3,N
1626276396.0,286047000.3,N
1626276415.8,286047000.5,N
1626276435.7,286047000.6,N
1626276455.5,286047000.5,N
1626276475.3,286047000.5,N
1626276495.2,286047000.6,N
1626276515.0,286047000.5,N
1626276515.9,286047000.5,N
1626276535.8,286047000.5,N
1626276555.6,286047000.6,N
1626276575.4,286047000.6,N
1626276595.3,286047000.6,N
1626276615.1,286047000.9,Y
1626276635.9,286047000.7,P
1626276655.7,286047000.8,P
1626276675.5,286047001.1,P
1626276695.4,286047000.6,N
1626276715.2,286047001.1,Y
1626276735.0,286046998.7,P
1626276736.0,286046998.7,N
1626276755.8,286046998.7,N
1626276775.6,286046998.9,N
1626276795.5,286046998.2,N
1626276815.3,286046998.8,N
1626276835.1,286046998.8,N
1626276855.9,286046998.8,N
1626276875.7,286046999.0,N
1626276895.6,286046998.7,N
1626276915.4,286046999.0,N
1626276935.2,286046999.0,N
1626276955.1,286046999.3,N
1626276956.0,286046999.3,N
1626276975.8,286046998.9,N
1626276995.6,286046998.8,N
1626277015.5,286046999.0,N
1626277035.3,286046999.3,N
1626277055.2,286046999.3,N
1626277075.9,286046999.0,N
1626277095.7,286046998.4,Y
1626277115.6,286047000.5,P
1626277135.4,286047000.9,N
1626277155.2,286047000.9,N
1626277175.1,286047000.6,N
1626277176.0,286047000.6,N
1626277195.8,286047000.9,N
1626277215.7,286047001.0,N
1626277235.5,286047000.6,N
1626277255.3,286047000.0,N
1626277275.2,286047001.2,N
1626277295.0,286047000.4,N
1626277295.9,286047000.4,N
1626277315.8,286047000.8,N
1626277335.6,286047000.9,N
1626277355.4,286047000.7,N
1626277375.3,286047001.0,N
1626277395.1,286047001.1,N
1626277415.8,286047000.6,N
1626277435.7,286047000.5,N
1626277455.5,286047000.4,N
1626277475.4,286047000.9,N
1626277495.2,286047000.6,N
1626277515.0,286047000.5,N
1626277515.9,286047000.5,N
1626277535.8,286047000.4,N
1626277555.6,286047000.6,N
1626277575.4,286047001.0,N
1626277595.3,286047001.0,N
1626277615.1,286047001.0,N
1626277635.9,286047001.1,N
1626277655.7,286047000.8,N
1626277675.5,286046998.1,Y
1626277695.4,286046998.4,P
1626277715.2,286046998.8,N
1626277735.1,286046998.8,N
1626277736.0,286046998.8,N
1626277755.8,286046999.0,N
1626277775.6,286046999.0,N
1626277795.5,286046998.3,N
1626277815.3,286046998.7,N
1626277835.1,286046998.4,N
1626277855.9,286046998.5,N
1626277875.7,286046998.1,Y
1626277895.6,286047000.7,P
1626277915.4,286047000.0,N
1626277935.2,286047001.0,N
1626277955.1,286047000.9,N
1626277956.0,286047000.9,N
1626277975.8,286047000.0,N
1626277995.7,286047000.6,N
1626278015.5,286047000.4,N
1626278035.3,286047000.5,N
1626278055.2,286047001.0,N
1626278075.0,286047001.0,N
1626278075.9,286047001.0,N
1626278095.8,286047000.2,N
1626278115.6,286047000.4,N
1626278135.4,286047000.4,N
1626278155.3,286047000.3,N
1626278175.1,286047002.8,Y
1626278195.8,286047001.0,P
1626278215.7,286047000.7,N
1626278235.5,286047001.0,P
1626278255.4,286047000.8,Y
1626278275.2,286046998.4,P
1626278295.0,286046998.4,N
1626278295.9,286046998.4,N
1626278315.8,286046998.5,N
1626278335.6,286046998.3,N
1626278355.5,286046998.2,N
1626278375.3,286046998.1,N
1626278395.1,286046998.2,N
